Location: Arroyo Grande
(40.2671°N, 4.2512°W)
Time: 19:51:52
(UTC+00:00)

In-Cosmos 22 Rocket - Pass Details

Date: 03 February 2023
Orbit: 789 x 888 km, 81.2° (Epoch: 21 March)

Event Time Altitude Azimuth Distance (km) Brightness Sun altitude
Rises 18:27:34 0° 178° (S) 3,453 7.5 -9.9°
Reaches altitude 10° 18:30:00 10° 176° (S) 2,528 6.8 -10.4°
Maximum altitude 18:35:41 64° 96° (E) 976 4.3 -11.4°
Drops below altitude 10° 18:41:28 10° 16° (NNE) 2,560 6.4 -12.5°
Sets 18:43:57 0° 13° (NNE) 3,501 7.2 -13.0°
